START_TIME,STEP,MOV.,M6,t_acc.,M7,t_acc.,M19,t_acc.,H36,t_acc.
1981-08-25 21:00:28.040 ,5,0,0.,12.0,0.,12.0,0.,12.0,0.,12.0
1981-08-25 21:00:40.040 ,5,0,0.,12.0,0.,12.0,0.,12.0,0.,12.0
1981-08-25 21:00:52.040 ,6,1,0.,12.0,0.,12.0,0.,12.0,0.,12.0
1981-08-25 21:01:04.040 ,6,1,0.,12.0,0.,12.0,0.,12.0,0.,12.0
1981-08-25 21:01:16.040 ,6,0,0.,12.0,0.,12.0,0.,12.0,0.,12.0
1981-08-25 21:01:28.040 ,6,0,0.,12.0,0.,12.0,0.,12.0,0.,12.0
1981-08-25 21:01:40.040 ,7,1,0.,12.0,0.,12.0,0.,12.0,0.,12.0
1981-08-25 21:01:52.040 ,7,1,0.,12.0,0.,12.0,0.,12.0,0.,12.0
1981-08-25 21:02:04.040 ,7,0,0.,12.0,0.,12.0,0.,12.0,0.,12.0
1981-08-25 21:02:16.040 ,7,0,0.,12.0,0.,12.0,0.,12.0,0.,12.0
1981-08-25 21:02:28.040 ,7,1,0.,12.0,0.,12.0,0.,12.0,0.,12.0
1981-08-25 21:02:40.040 ,7,1,0.,12.0,0.,12.0,0.,12.0,0.,12.0
1981-08-25 21:02:52.040 ,7,0,0.,12.0,0.,12.0,0.,12.0,0.,12.0
1981-08-25 21:03:04.040 ,7,0,0.,12.0,0.,12.0,0.,12.0,0.,12.0
1981-08-25 21:03:16.040 ,6,1,0.,12.0,0.,12.0,0.,12.0,0.,12.0
1981-08-25 21:03:28.040 ,6,1,0.,12.0,0.,12.0,0.,12.0,0.,12.0
1981-08-25 21:03:40.040 ,6,0,0.,12.0,0.,12.0,0.,12.0,0.,12.0
1981-08-25 21:03:52.040 ,6,0,0.,12.0,0.,12.0,0.,12.0,0.,12.0
1981-08-25 21:04:04.040 ,5,1,0.,12.0,0.,12.0,0.,12.0,0.,12.0
1981-08-25 21:04:16.040 ,5,1,0.,12.0,0.,12.0,0.,12.0,0.,12.0
1981-08-25 21:04:28.040 ,5,0,0.,12.0,0.,12.0,0.,12.0,0.,12.0
1981-08-25 21:04:40.040 ,5,0,1.,12.0,0.,12.0,0.,12.0,0.,12.0
1981-08-25 21:04:52.040 ,4,1,0.,12.0,0.,12.0,0.,12.0,0.,12.0
1981-08-25 21:05:04.040 ,4,1,0.,12.0,0.,12.0,0.,12.0,0.,12.0
1981-08-25 21:05:16.040 ,4,0,0.,12.0,0.,12.0,0.,12.0,0.,12.0
1981-08-25 21:05:28.040 ,4,0,0.,12.0,0.,12.0,0.,12.0,0.,12.0
1981-08-25 21:05:40.040 ,3,1,0.,12.0,0.,12.0,0.,12.0,0.,12.0
1981-08-25 21:05:52.040 ,3,1,0.,12.0,0.,12.0,0.,12.0,0.,12.0
1981-08-25 21:06:04.040 ,3,0,0.,12.0,0.,12.0,0.,12.0,0.,12.0
1981-08-25 21:06:16.040 ,3,0,0.,12.0,0.,12.0,0.,12.0,0.,12.0
1981-08-25 21:06:28.040 ,2,1,0.,12.0,0.,12.0,0.,12.0,0.,12.0
1981-08-25 21:06:40.040 ,2,1,0.,12.0,0.,12.0,0.,12.0,0.,12.0
1981-08-25 21:06:52.040 ,2,0,0.,12.0,0.,12.0,0.,12.0,0.,12.0
1981-08-25 21:07:04.040 ,2,0,0.,12.0,0.,12.0,0.,12.0,0.,12.0
1981-08-25 21:07:16.040 ,1,1,0.,12.0,0.,12.0,0.,12.0,0.,12.0
1981-08-25 21:07:28.040 ,1,1,0.,12.0,0.,12.0,0.,12.0,0.,12.0
1981-08-25 21:07:40.040 ,1,0,0.,12.0,0.,12.0,0.,12.0,0.,12.0
1981-08-25 21:07:52.040 ,1,0,0.,12.0,0.,12.0,0.,12.0,0.,12.0
1981-08-25 21:08:04.040 ,0,1,0.,12.0,0.,12.0,0.,12.0,0.,12.0
1981-08-25 21:08:16.040 ,0,1,0.,12.0,0.,12.0,0.,12.0,0.,12.0
1981-08-25 21:08:28.040 ,0,0,0.,12.0,0.,12.0,0.,12.0,0.,12.0
1981-08-25 21:08:40.040 ,0,0,0.,12.0,0.,12.0,0.,12.0,0.,12.0
1981-08-25 21:08:52.030 ,0,1,0.,12.0,0.,12.0,0.,12.0,0.,12.0
1981-08-25 21:09:04.040 ,0,1,0.,12.0,0.,12.0,0.,12.0,0.,12.0
1981-08-25 21:09:16.030 ,0,0,0.,12.0,0.,12.0,0.,12.0,0.,12.0
1981-08-25 21:09:28.040 ,0,0,0.,12.0,0.,12.0,0.,12.0,0.,12.0
1981-08-25 21:09:40.030 ,1,1,0.,12.0,0.,12.0,0.,12.0,0.,12.0
1981-08-25 21:09:52.040 ,1,1,0.,12.0,0.,12.0,0.,12.0,0.,12.0
1981-08-25 21:10:04.040 ,1,0,0.,12.0,0.,12.0,0.,12.0,0.,12.0
1981-08-25 21:10:16.040 ,1,0,0.,12.0,0.,12.0,0.,12.0,0.,12.0
1981-08-25 21:10:28.030 ,2,1,0.,12.0,0.,12.0,0.,12.0,0.,12.0
1981-08-25 21:10:40.040 ,2,1,0.,12.0,0.,12.0,0.,12.0,0.,12.0
1981-08-25 21:10:52.030 ,2,0,0.,12.0,0.,12.0,0.,12.0,0.,12.0
1981-08-25 21:11:04.030 ,2,0,0.,12.0,0.,12.0,0.,12.0,0.,12.0
1981-08-25 21:11:16.030 ,3,1,0.,12.0,0.,12.0,0.,12.0,0.,12.0
1981-08-25 21:11:28.040 ,3,1,0.,12.0,0.,12.0,0.,12.0,0.,12.0
1981-08-25 21:11:40.030 ,3,0,0.,12.0,0.,12.0,0.,12.0,0.,12.0
1981-08-25 21:11:52.040 ,3,0,0.,12.0,0.,12.0,0.,12.0,0.,12.0
1981-08-25 21:12:04.040 ,4,1,0.,12.0,0.,12.0,0.,12.0,0.,12.0
1981-08-25 21:12:16.040 ,4,1,0.,12.0,0.,12.0,0.,12.0,0.,12.0
1981-08-25 21:12:28.030 ,4,0,0.,12.0,0.,12.0,0.,12.0,0.,12.0
1981-08-25 21:12:40.040 ,4,0,0.,12.0,0.,12.0,0.,12.0,0.,12.0
1981-08-25 21:12:52.030 ,5,1,0.,12.0,0.,12.0,0.,12.0,0.,12.0
1981-08-25 21:13:04.030 ,5,1,0.,12.0,0.,12.0,0.,12.0,0.,12.0
1981-08-25 21:13:16.030 ,5,0,0.,12.0,0.,12.0,0.,12.0,0.,12.0
1981-08-25 21:13:28.040 ,5,0,0.,12.0,0.,12.0,0.,12.0,0.,12.0
1981-08-25 21:13:40.030 ,6,1,0.,12.0,0.,12.0,0.,12.0,0.,12.0
1981-08-25 21:13:52.030 ,6,1,0.,12.0,0.,12.0,0.,12.0,0.,12.0
1981-08-25 21:14:04.030 ,6,0,0.,12.0,0.,12.0,0.,12.0,0.,12.0
1981-08-25 21:14:16.030 ,6,0,0.,12.0,0.,12.0,0.,12.0,0.,12.0
1981-08-25 21:14:28.030 ,7,1,0.,12.0,0.,12.0,0.,12.0,0.,12.0
1981-08-25 21:14:40.030 ,7,1,0.,12.0,0.,12.0,0.,12.0,0.,12.0
1981-08-25 21:14:52.030 ,7,0,0.,12.0,0.,12.0,0.,12.0,0.,12.0
1981-08-25 21:15:04.030 ,7,0,0.,12.0,0.,12.0,0.,12.0,0.,12.0
1981-08-25 21:15:16.030 ,7,1,0.,12.0,0.,12.0,0.,12.0,0.,12.0
1981-08-25 21:15:28.030 ,7,1,0.,12.0,0.,12.0,0.,12.0,0.,12.0
1981-08-25 21:15:40.030 ,7,0,0.,12.0,0.,12.0,0.,12.0,0.,12.0
1981-08-25 21:15:52.030 ,7,0,0.,12.0,0.,12.0,0.,12.0,0.,12.0
1981-08-25 21:16:04.030 ,6,1,0.,12.0,0.,12.0,0.,12.0,0.,12.0
1981-08-25 21:16:16.030 ,6,1,0.,12.0,0.,12.0,0.,12.0,0.,12.0
1981-08-25 21:16:28.030 ,6,0,0.,12.0,0.,12.0,0.,12.0,0.,12.0
1981-08-25 21:16:40.030 ,6,0,0.,12.0,0.,12.0,0.,12.0,0.,12.0
1981-08-25 21:16:52.030 ,5,1,0.,12.0,0.,12.0,0.,12.0,0.,12.0
1981-08-25 21:17:04.030 ,5,1,0.,12.0,0.,12.0,0.,12.0,0.,12.0
1981-08-25 21:17:16.030 ,5,0,0.,12.0,0.,12.0,0.,12.0,0.,12.0
1981-08-25 21:17:28.030 ,5,0,0.,12.0,0.,12.0,0.,12.0,0.,12.0
1981-08-25 21:17:40.030 ,4,1,0.,12.0,0.,12.0,0.,12.0,0.,12.0
1981-08-25 21:17:52.030 ,4,1,0.,12.0,0.,12.0,0.,12.0,0.,12.0
1981-08-25 21:18:04.030 ,4,0,0.,12.0,0.,12.0,0.,12.0,0.,12.0
1981-08-25 21:18:16.030 ,4,0,0.,12.0,0.,12.0,0.,12.0,0.,12.0
1981-08-25 21:18:28.030 ,3,1,0.,12.0,0.,12.0,0.,12.0,0.,12.0
1981-08-25 21:18:40.030 ,3,1,0.,12.0,0.,12.0,0.,12.0,0.,12.0
1981-08-25 21:18:52.030 ,3,0,0.,12.0,0.,12.0,0.,12.0,0.,12.0
1981-08-25 21:19:04.030 ,3,0,0.,12.0,0.,12.0,0.,12.0,0.,12.0
1981-08-25 21:19:16.030 ,2,1,0.,12.0,0.,12.0,0.,12.0,0.,12.0
1981-08-25 21:19:28.030 ,2,1,0.,12.0,0.,12.0,0.,12.0,0.,12.0
1981-08-25 21:19:40.030 ,2,0,0.,12.0,0.,12.0,0.,12.0,0.,12.0
1981-08-25 21:19:52.030 ,2,0,0.,12.0,0.,12.0,0.,12.0,0.,12.0
1981-08-25 21:20:04.030 ,1,1,0.,12.0,0.,12.0,0.,12.0,0.,12.0
1981-08-25 21:20:16.030 ,1,1,0.,12.0,0.,12.0,0.,12.0,0.,12.0
1981-08-25 21:20:28.030 ,1,0,0.,12.0,0.,12.0,0.,12.0,0.,12.0
1981-08-25 21:20:40.030 ,1,0,0.,12.0,0.,12.0,0.,12.0,0.,12.0
1981-08-25 21:20:52.030 ,0,1,0.,12.0,0.,12.0,0.,12.0,0.,12.0
1981-08-25 21:21:04.030 ,0,1,0.,12.0,0.,12.0,0.,12.0,0.,12.0
1981-08-25 21:21:16.030 ,0,0,0.,12.0,0.,12.0,0.,12.0,0.,12.0
1981-08-25 21:21:28.030 ,0,0,0.,12.0,0.,12.0,0.,12.0,0.,12.0
1981-08-25 21:21:40.030 ,0,1,0.,12.0,0.,12.0,0.,12.0,0.,12.0
1981-08-25 21:21:52.030 ,0,1,0.,12.0,0.,12.0,0.,12.0,0.,12.0
1981-08-25 21:22:04.030 ,0,0,0.,12.0,0.,12.0,0.,12.0,0.,12.0
1981-08-25 21:22:16.030 ,0,0,0.,12.0,0.,12.0,0.,12.0,0.,12.0
1981-08-25 21:22:28.030 ,1,1,0.,12.0,0.,12.0,0.,12.0,0.,12.0
1981-08-25 21:22:40.030 ,1,1,0.,12.0,0.,12.0,0.,12.0,0.,12.0
1981-08-25 21:22:52.030 ,1,0,0.,12.0,0.,12.0,0.,12.0,0.,12.0
1981-08-25 21:23:04.030 ,1,0,0.,12.0,0.,12.0,0.,12.0,0.,12.0
1981-08-25 21:23:16.030 ,2,1,0.,12.0,0.,12.0,0.,12.0,0.,12.0
1981-08-25 21:23:28.030 ,2,1,0.,12.0,0.,12.0,0.,12.0,0.,12.0
1981-08-25 21:23:40.030 ,2,0,0.,12.0,0.,12.0,0.,12.0,0.,12.0
1981-08-25 21:23:52.030 ,2,0,0.,12.0,0.,12.0,0.,12.0,0.,12.0
1981-08-25 21:24:04.030 ,3,1,0.,12.0,0.,12.0,0.,12.0,0.,12.0
1981-08-25 21:24:16.030 ,3,1,0.,12.0,0.,12.0,0.,12.0,0.,12.0
1981-08-25 21:24:28.030 ,3,0,0.,12.0,0.,12.0,0.,12.0,0.,12.0
1981-08-25 21:24:40.030 ,3,0,0.,12.0,0.,12.0,0.,12.0,0.,12.0
1981-08-25 21:24:52.030 ,4,1,0.,12.0,0.,12.0,0.,12.0,0.,12.0
1981-08-25 21:25:04.030 ,4,1,0.,12.0,0.,12.0,0.,12.0,0.,12.0
1981-08-25 21:25:16.030 ,4,0,0.,12.0,0.,12.0,0.,12.0,0.,12.0
1981-08-25 21:25:28.030 ,4,0,0.,12.0,0.,12.0,0.,12.0,0.,12.0
1981-08-25 21:25:40.030 ,5,1,0.,12.0,0.,12.0,0.,12.0,0.,12.0
1981-08-25 21:25:52.030 ,5,1,0.,12.0,0.,12.0,0.,12.0,0.,12.0
1981-08-25 21:26:04.030 ,5,0,0.,12.0,0.,12.0,0.,12.0,0.,12.0
1981-08-25 21:26:16.030 ,5,0,0.,12.0,0.,12.0,0.,12.0,0.,12.0
1981-08-25 21:26:28.030 ,6,1,0.,12.0,0.,12.0,0.,12.0,0.,12.0
1981-08-25 21:26:40.030 ,6,1,0.,12.0,0.,12.0,0.,12.0,0.,12.0
1981-08-25 21:26:52.030 ,6,0,0.,12.0,0.,12.0,0.,12.0,0.,12.0
1981-08-25 21:27:04.030 ,6,0,0.,12.0,0.,12.0,0.,12.0,0.,12.0
1981-08-25 21:27:16.030 ,7,1,0.,12.0,0.,12.0,0.,12.0,0.,12.0
1981-08-25 21:27:28.030 ,7,1,0.,12.0,0.,12.0,0.,12.0,0.,12.0
1981-08-25 21:27:40.030 ,7,0,0.,12.0,0.,12.0,0.,12.0,0.,12.0
1981-08-25 21:27:52.030 ,7,0,0.,12.0,0.,12.0,0.,12.0,0.,12.0
1981-08-25 21:28:04.030 ,7,1,0.,12.0,0.,12.0,0.,12.0,0.,12.0
1981-08-25 21:28:16.030 ,7,1,0.,12.0,0.,12.0,0.,12.0,0.,12.0
1981-08-25 21:28:28.030 ,7,0,0.,12.0,0.,12.0,0.,12.0,0.,12.0
1981-08-25 21:28:40.030 ,7,0,0.,12.0,0.,12.0,0.,12.0,0.,12.0
1981-08-25 21:28:52.030 ,0,0,0.,12.0,0.,12.0,0.,12.0,0.,12.0
1981-08-25 21:29:04.030 ,0,0,,0,,0,,0,,0
1981-08-25 21:29:16.030 ,0,0,0.,12.0,0.,12.0,0.,12.0,0.,12.0
1981-08-25 21:29:28.030 ,0,0,0.,12.0,0.,12.0,0.,12.0,0.,12.0
1981-08-25 21:29:40.030 ,5,1,0.,12.0,0.,12.0,0.,12.0,0.,12.0
1981-08-25 21:29:52.030 ,5,1,0.,12.0,0.,12.0,0.,12.0,0.,12.0
1981-08-25 21:30:04.030 ,5,0,0.,12.0,0.,12.0,0.,12.0,0.,12.0
1981-08-25 21:30:16.030 ,5,0,0.,12.0,0.,12.0,0.,12.0,0.,12.0
1981-08-25 21:30:28.030 ,4,1,0.,12.0,0.,12.0,0.,12.0,0.,12.0
1981-08-25 21:30:40.030 ,4,1,0.,12.0,0.,12.0,0.,12.0,0.,12.0
1981-08-25 21:30:52.030 ,4,0,0.,12.0,0.,12.0,0.,12.0,0.,12.0
1981-08-25 21:31:04.030 ,4,0,0.,12.0,0.,12.0,0.,12.0,0.,12.0
1981-08-25 21:31:16.030 ,3,1,0.,12.0,0.,12.0,0.,12.0,0.,12.0
1981-08-25 21:31:28.030 ,3,1,0.,12.0,0.,12.0,0.,12.0,0.,12.0
1981-08-25 21:31:40.030 ,3,0,0.,12.0,0.,12.0,0.,12.0,0.,12.0
1981-08-25 21:31:52.030 ,3,0,0.,12.0,0.,12.0,0.,12.0,0.,12.0
1981-08-25 21:32:04.030 ,2,1,0.,12.0,0.,12.0,0.,12.0,0.,12.0
1981-08-25 21:32:16.030 ,2,1,0.,12.0,0.,12.0,0.,12.0,0.,12.0
1981-08-25 21:32:28.030 ,2,0,0.,12.0,0.,12.0,0.,12.0,0.,12.0
1981-08-25 21:32:40.030 ,2,0,0.,12.0,0.,12.0,0.,12.0,0.,12.0
1981-08-25 21:32:52.030 ,1,1,0.,12.0,0.,12.0,0.,12.0,0.,12.0
1981-08-25 21:33:04.030 ,1,1,0.,12.0,0.,12.0,0.,12.0,0.,12.0
1981-08-25 21:33:16.030 ,0,0,0.,12.0,0.,12.0,0.,12.0,0.,12.0
1981-08-25 21:33:28.030 ,0,0,0.,12.0,0.,12.0,0.,12.0,0.,12.0
1981-08-25 21:33:44.830 ,0,0,,0,,0,,0,,0
1981-08-25 21:33:56.830 ,0,0,,0,,0,,0,,0
1981-08-25 21:34:04.030 ,0,0,0.,12.0,0.,12.0,0.,12.0,0.,12.0
1981-08-25 21:34:16.030 ,0,0,0.,12.0,0.,12.0,0.,12.0,0.,12.0
1981-08-25 21:34:28.030 ,0,1,0.,12.0,0.,12.0,0.,12.0,0.,12.0
1981-08-25 21:34:40.030 ,0,1,0.,12.0,0.,12.0,0.,12.0,0.,12.0
1981-08-25 21:34:52.030 ,0,0,0.,12.0,0.,12.0,0.,12.0,0.,12.0
1981-08-25 21:35:04.030 ,0,0,0.,12.0,0.,12.0,0.,12.0,0.,12.0
1981-08-25 21:35:16.030 ,1,1,0.,12.0,0.,12.0,0.,12.0,0.,12.0
1981-08-25 21:35:28.030 ,1,1,0.,12.0,0.,12.0,0.,12.0,0.,12.0
1981-08-25 21:35:40.030 ,1,0,0.,12.0,0.,12.0,0.,12.0,0.,12.0
1981-08-25 21:35:52.030 ,1,0,0.,12.0,0.,12.0,0.,12.0,0.,12.0
1981-08-25 21:36:04.030 ,2,1,0.,12.0,0.,12.0,0.,12.0,0.,12.0
1981-08-25 21:36:16.030 ,2,1,0.,12.0,0.,12.0,0.,12.0,0.,12.0
1981-08-25 21:36:28.030 ,2,0,0.,12.0,0.,12.0,0.,12.0,0.,12.0
1981-08-25 21:36:40.030 ,2,0,0.,12.0,0.,12.0,0.,12.0,0.,12.0
1981-08-25 21:36:52.030 ,3,1,0.,12.0,0.,12.0,0.,12.0,0.,12.0
1981-08-25 21:37:04.030 ,3,1,0.,12.0,0.,12.0,0.,12.0,0.,12.0
1981-08-25 21:37:16.030 ,3,0,0.,12.0,0.,12.0,0.,12.0,0.,12.0
1981-08-25 21:37:28.030 ,3,0,0.,12.0,0.,12.0,0.,12.0,0.,12.0
1981-08-25 21:37:40.030 ,4,1,0.,12.0,0.,12.0,0.,12.0,0.,12.0
1981-08-25 21:37:52.030 ,4,1,0.,12.0,0.,12.0,0.,12.0,0.,12.0
1981-08-25 21:38:04.030 ,4,0,0.,12.0,0.,12.0,0.,12.0,0.,12.0
1981-08-25 21:38:16.030 ,4,0,0.,12.0,0.,12.0,0.,12.0,0.,12.0
1981-08-25 21:38:28.030 ,5,1,0.,12.0,0.,12.0,0.,12.0,0.,12.0
1981-08-25 21:38:40.030 ,5,1,0.,12.0,0.,12.0,0.,12.0,0.,12.0
1981-08-25 21:38:52.030 ,5,0,0.,12.0,0.,12.0,0.,12.0,0.,12.0
1981-08-25 21:39:04.030 ,5,0,0.,12.0,0.,12.0,0.,12.0,0.,12.0
1981-08-25 21:39:16.030 ,6,1,0.,12.0,0.,12.0,0.,12.0,0.,12.0
1981-08-25 21:39:28.030 ,6,1,0.,12.0,0.,12.0,0.,12.0,0.,12.0
1981-08-25 21:39:40.030 ,6,0,0.,12.0,0.,12.0,0.,12.0,0.,12.0
1981-08-25 21:39:52.030 ,6,0,0.,12.0,0.,12.0,0.,12.0,0.,12.0
1981-08-25 21:40:04.030 ,7,1,0.,12.0,0.,12.0,0.,12.0,0.,12.0
1981-08-25 21:40:16.030 ,7,1,0.,12.0,0.,12.0,0.,12.0,0.,12.0
1981-08-25 21:40:28.030 ,7,0,0.,12.0,0.,12.0,0.,12.0,0.,12.0
1981-08-25 21:40:40.030 ,7,0,0.,12.0,0.,12.0,0.,12.0,0.,12.0
1981-08-25 21:40:52.030 ,7,1,0.,12.0,0.,12.0,0.,12.0,0.,12.0
1981-08-25 21:41:04.030 ,7,1,0.,12.0,0.,12.0,0.,12.0,0.,12.0
1981-08-25 21:41:16.030 ,7,0,0.,12.0,0.,12.0,0.,12.0,0.,12.0
1981-08-25 21:41:28.030 ,7,0,0.,12.0,0.,12.0,0.,12.0,0.,12.0
1981-08-25 21:41:40.030 ,6,1,0.,12.0,0.,12.0,0.,12.0,0.,12.0
1981-08-25 21:41:52.030 ,6,1,0.,12.0,0.,12.0,0.,12.0,0.,12.0
1981-08-25 21:42:04.030 ,6,0,0.,12.0,0.,12.0,0.,12.0,0.,12.0
1981-08-25 21:42:16.030 ,6,0,0.,12.0,0.,12.0,0.,12.0,0.,12.0
1981-08-25 21:42:28.030 ,5,1,0.,12.0,0.,12.0,0.,12.0,0.,12.0
1981-08-25 21:42:40.030 ,5,1,0.,12.0,0.,12.0,0.,12.0,0.,12.0
1981-08-25 21:42:52.030 ,5,0,0.,12.0,0.,12.0,0.,12.0,0.,12.0
1981-08-25 21:43:04.030 ,5,0,0.,12.0,0.,12.0,0.,12.0,0.,12.0
1981-08-25 21:43:16.030 ,4,1,0.,12.0,0.,12.0,0.,12.0,0.,12.0
1981-08-25 21:43:28.030 ,4,1,0.,12.0,0.,12.0,0.,12.0,0.,12.0
1981-08-25 21:43:40.030 ,4,0,0.,12.0,0.,12.0,0.,12.0,0.,12.0
1981-08-25 21:43:52.030 ,4,0,0.,12.0,0.,12.0,0.,12.0,0.,12.0
1981-08-25 21:44:04.030 ,3,1,0.,12.0,0.,12.0,0.,12.0,0.,12.0
1981-08-25 21:44:16.030 ,3,1,0.,12.0,0.,12.0,0.,12.0,0.,12.0
1981-08-25 21:44:28.030 ,3,0,0.,12.0,0.,12.0,0.,12.0,0.,12.0
1981-08-25 21:44:40.030 ,3,0,0.,12.0,0.,12.0,0.,12.0,0.,12.0
1981-08-25 21:44:52.030 ,2,1,0.,12.0,0.,12.0,0.,12.0,0.,12.0
1981-08-25 21:45:04.030 ,2,1,0.,12.0,0.,12.0,0.,12.0,0.,12.0
1981-08-25 21:45:16.030 ,2,0,0.,12.0,0.,12.0,0.,12.0,0.,12.0
1981-08-25 21:45:28.030 ,2,0,0.,12.0,0.,12.0,0.,12.0,0.,12.0
1981-08-25 21:45:40.030 ,1,1,0.,12.0,0.,12.0,0.,12.0,0.,12.0
1981-08-25 21:45:52.030 ,1,1,0.,12.0,0.,12.0,0.,12.0,0.,12.0
1981-08-25 21:46:04.030 ,1,0,0.,12.0,0.,12.0,0.,12.0,0.,12.0
1981-08-25 21:46:16.030 ,1,0,0.,12.0,0.,12.0,0.,12.0,0.,12.0
1981-08-25 21:46:28.030 ,0,1,0.,12.0,0.,12.0,0.,12.0,0.,12.0
1981-08-25 21:46:40.030 ,0,1,0.,12.0,0.,12.0,0.,12.0,0.,12.0
1981-08-25 21:46:52.030 ,0,0,0.,12.0,0.,12.0,0.,12.0,0.,12.0
1981-08-25 21:47:04.030 ,0,0,0.,12.0,0.,12.0,0.,12.0,0.,12.0
1981-08-25 21:47:16.030 ,0,1,0.,12.0,0.,12.0,0.,12.0,1.,12.0
1981-08-25 21:47:28.030 ,0,1,0.,12.0,0.,12.0,0.,12.0,0.,12.0
1981-08-25 21:47:40.030 ,0,0,0.,12.0,0.,12.0,0.,12.0,0.,12.0
1981-08-25 21:47:52.030 ,0,0,0.,12.0,0.,12.0,0.,12.0,0.,12.0
1981-08-25 21:48:04.030 ,1,1,0.,12.0,0.,12.0,0.,12.0,0.,12.0
1981-08-25 21:48:16.030 ,1,1,0.,12.0,0.,12.0,0.,12.0,0.,12.0
1981-08-25 21:48:28.030 ,1,0,0.,12.0,0.,12.0,0.,12.0,0.,12.0
1981-08-25 21:48:40.030 ,1,0,0.,12.0,0.,12.0,0.,12.0,0.,12.0
1981-08-25 21:48:52.030 ,2,1,0.,12.0,0.,12.0,0.,12.0,0.,12.0
1981-08-25 21:49:04.030 ,2,1,0.,12.0,0.,12.0,0.,12.0,0.,12.0
1981-08-25 21:49:16.030 ,2,0,0.,12.0,0.,12.0,0.,12.0,0.,12.0
1981-08-25 21:49:28.030 ,2,0,0.,12.0,0.,12.0,0.,12.0,0.,12.0
1981-08-25 21:49:40.030 ,3,1,0.,12.0,0.,12.0,0.,12.0,0.,12.0
1981-08-25 21:49:52.030 ,3,1,0.,12.0,0.,12.0,0.,12.0,0.,12.0
1981-08-25 21:50:04.030 ,3,0,0.,12.0,0.,12.0,0.,12.0,0.,12.0
1981-08-25 21:50:16.030 ,3,0,0.,12.0,0.,12.0,0.,12.0,0.,12.0
1981-08-25 21:50:28.030 ,4,1,0.,12.0,0.,12.0,0.,12.0,0.,12.0
1981-08-25 21:50:40.030 ,4,1,0.,12.0,0.,12.0,0.,12.0,0.,12.0
1981-08-25 21:50:52.030 ,4,0,0.,12.0,0.,12.0,0.,12.0,0.,12.0
1981-08-25 21:51:04.030 ,4,0,0.,12.0,0.,12.0,0.,12.0,0.,12.0
1981-08-25 21:51:16.030 ,5,1,0.,12.0,0.,12.0,0.,12.0,0.,12.0
1981-08-25 21:51:28.030 ,5,1,0.,12.0,0.,12.0,0.,12.0,0.,12.0
1981-08-25 21:51:40.030 ,5,0,0.,12.0,0.,12.0,0.,12.0,0.,12.0
1981-08-25 21:51:52.030 ,5,0,0.,12.0,0.,12.0,0.,12.0,0.,12.0
1981-08-25 21:52:04.030 ,6,1,0.,12.0,0.,12.0,0.,12.0,0.,12.0
1981-08-25 21:52:16.030 ,6,1,0.,12.0,0.,12.0,0.,12.0,0.,12.0
1981-08-25 21:52:28.030 ,6,0,0.,12.0,0.,12.0,0.,12.0,0.,12.0
1981-08-25 21:52:40.030 ,6,0,0.,12.0,0.,12.0,0.,12.0,0.,12.0
1981-08-25 21:52:52.030 ,7,1,0.,12.0,0.,12.0,0.,12.0,0.,12.0
1981-08-25 21:53:04.030 ,7,1,0.,12.0,0.,12.0,0.,12.0,0.,12.0
1981-08-25 21:53:16.030 ,7,0,0.,12.0,0.,12.0,0.,12.0,0.,12.0
1981-08-25 21:53:28.030 ,7,0,0.,12.0,0.,12.0,0.,12.0,0.,12.0
1981-08-25 21:53:40.030 ,7,1,0.,12.0,0.,12.0,0.,12.0,0.,12.0
1981-08-25 21:53:52.030 ,7,1,0.,12.0,0.,12.0,0.,12.0,0.,12.0
1981-08-25 21:54:04.030 ,7,0,0.,12.0,0.,12.0,0.,12.0,0.,12.0
1981-08-25 21:54:16.030 ,7,0,0.,12.0,0.,12.0,0.,12.0,0.,12.0
1981-08-25 21:54:28.030 ,6,1,0.,12.0,0.,12.0,0.,12.0,0.,12.0
1981-08-25 21:54:40.030 ,6,1,0.,12.0,0.,12.0,0.,12.0,0.,12.0
1981-08-25 21:54:52.030 ,6,0,0.,12.0,0.,12.0,0.,12.0,0.,12.0
1981-08-25 21:55:04.030 ,6,0,0.,12.0,0.,12.0,0.,12.0,0.,12.0
1981-08-25 21:55:16.030 ,5,1,0.,12.0,0.,12.0,0.,12.0,0.,12.0
1981-08-25 21:55:28.030 ,5,1,0.,12.0,0.,12.0,0.,12.0,0.,12.0
1981-08-25 21:55:40.030 ,5,0,0.,12.0,0.,12.0,0.,12.0,0.,12.0
1981-08-25 21:55:52.030 ,5,0,0.,12.0,0.,12.0,0.,12.0,0.,12.0
1981-08-25 21:56:04.030 ,4,1,0.,12.0,0.,12.0,0.,12.0,0.,12.0
1981-08-25 21:56:16.030 ,4,1,0.,12.0,0.,12.0,0.,12.0,0.,12.0
1981-08-25 21:56:28.030 ,4,0,0.,12.0,0.,12.0,0.,12.0,0.,12.0
1981-08-25 21:56:40.030 ,4,0,0.,12.0,0.,12.0,0.,12.0,0.,12.0
1981-08-25 21:56:52.030 ,3,1,0.,12.0,0.,12.0,0.,12.0,0.,12.0
1981-08-25 21:57:04.030 ,3,1,0.,12.0,0.,12.0,0.,12.0,0.,12.0
1981-08-25 21:57:16.030 ,3,0,0.,12.0,0.,12.0,0.,12.0,0.,12.0
1981-08-25 21:57:28.030 ,3,0,0.,12.0,0.,12.0,0.,12.0,0.,12.0
1981-08-25 21:57:40.030 ,2,1,0.,12.0,0.,12.0,0.,12.0,0.,12.0
1981-08-25 21:57:52.030 ,2,1,0.,12.0,0.,12.0,0.,12.0,0.,12.0
1981-08-25 21:58:04.030 ,2,0,0.,12.0,0.,12.0,0.,12.0,0.,12.0
1981-08-25 21:58:16.030 ,2,0,0.,12.0,0.,12.0,0.,12.0,0.,12.0
1981-08-25 21:58:28.030 ,1,1,0.,12.0,0.,12.0,0.,12.0,0.,12.0
1981-08-25 21:58:40.030 ,1,1,0.,12.0,0.,12.0,0.,12.0,0.,12.0
1981-08-25 21:58:52.030 ,1,0,0.,12.0,0.,12.0,0.,12.0,0.,12.0
1981-08-25 21:59:04.030 ,1,0,0.,12.0,0.,12.0,0.,12.0,0.,12.0
1981-08-25 21:59:16.030 ,0,1,0.,12.0,0.,12.0,0.,12.0,0.,12.0
1981-08-25 21:59:28.030 ,0,1,0.,12.0,0.,12.0,0.,12.0,0.,12.0
1981-08-25 21:59:40.030 ,0,0,0.,12.0,0.,12.0,0.,12.0,0.,12.0
1981-08-25 21:59:52.030 ,0,0,0.,12.0,0.,12.0,0.,12.0,0.,12.0
1981-08-25 22:00:04.030 ,0,1,0.,12.0,0.,12.0,0.,12.0,0.,12.0
1981-08-25 22:00:16.030 ,0,1,0.,12.0,0.,12.0,0.,12.0,0.,12.0
1981-08-25 22:00:28.030 ,0,0,0.,12.0,0.,12.0,0.,12.0,0.,12.0
1981-08-25 22:00:40.030 ,0,0,0.,12.0,0.,12.0,0.,12.0,0.,12.0
1981-08-25 22:00:52.030 ,1,1,0.,12.0,0.,12.0,0.,12.0,0.,12.0
1981-08-25 22:01:04.030 ,1,1,0.,12.0,0.,12.0,0.,12.0,0.,12.0
1981-08-25 22:01:16.030 ,1,0,0.,12.0,0.,12.0,0.,12.0,0.,12.0
1981-08-25 22:01:28.030 ,1,0,0.,12.0,0.,12.0,0.,12.0,0.,12.0
1981-08-25 22:01:40.030 ,2,1,0.,12.0,0.,12.0,0.,12.0,0.,12.0
1981-08-25 22:01:52.030 ,2,1,0.,12.0,0.,12.0,0.,12.0,0.,12.0
1981-08-25 22:02:04.030 ,2,0,0.,12.0,0.,12.0,0.,12.0,0.,12.0
1981-08-25 22:02:16.030 ,2,0,0.,12.0,0.,12.0,0.,12.0,0.,12.0
1981-08-25 22:02:28.030 ,3,1,0.,12.0,0.,12.0,0.,12.0,0.,12.0
1981-08-25 22:02:40.030 ,3,1,0.,12.0,0.,12.0,0.,12.0,0.,12.0
1981-08-25 22:02:52.030 ,3,0,0.,12.0,0.,12.0,0.,12.0,0.,12.0
1981-08-25 22:03:04.030 ,3,0,0.,12.0,0.,12.0,0.,12.0,0.,12.0
1981-08-25 22:03:16.030 ,4,1,0.,12.0,0.,12.0,0.,12.0,0.,12.0
1981-08-25 22:03:28.030 ,4,1,0.,12.0,0.,12.0,0.,12.0,0.,12.0
1981-08-25 22:03:40.030 ,4,0,0.,12.0,0.,12.0,0.,12.0,0.,12.0
1981-08-25 22:03:52.030 ,4,0,0.,12.0,0.,12.0,0.,12.0,0.,12.0
1981-08-25 22:04:04.030 ,5,1,0.,12.0,0.,12.0,0.,12.0,0.,12.0
1981-08-25 22:04:16.030 ,5,1,0.,12.0,0.,12.0,0.,12.0,0.,12.0
1981-08-25 22:04:28.030 ,5,0,0.,12.0,0.,12.0,0.,12.0,0.,12.0
1981-08-25 22:04:40.030 ,5,0,0.,12.0,0.,12.0,0.,12.0,0.,12.0
1981-08-25 22:04:52.030 ,6,1,0.,12.0,0.,12.0,0.,12.0,0.,12.0
1981-08-25 22:05:04.030 ,6,1,0.,12.0,0.,12.0,0.,12.0,0.,12.0
1981-08-25 22:05:16.030 ,6,0,0.,12.0,0.,12.0,0.,12.0,0.,12.0
1981-08-25 22:05:28.030 ,6,0,0.,12.0,0.,12.0,0.,12.0,0.,12.0
1981-08-25 22:05:40.030 ,7,1,0.,12.0,0.,12.0,0.,12.0,0.,12.0
1981-08-25 22:05:52.030 ,7,1,0.,12.0,0.,12.0,0.,12.0,0.,12.0
1981-08-25 22:06:04.030 ,7,0,0.,12.0,0.,12.0,0.,12.0,0.,12.0
1981-08-25 22:06:16.030 ,7,0,0.,12.0,0.,12.0,0.,12.0,0.,12.0
1981-08-25 22:06:28.030 ,7,1,0.,12.0,0.,12.0,0.,12.0,0.,12.0
1981-08-25 22:06:40.030 ,7,1,0.,12.0,0.,12.0,0.,12.0,0.,12.0
1981-08-25 22:06:52.030 ,7,0,0.,12.0,0.,12.0,0.,12.0,0.,12.0
1981-08-25 22:07:04.030 ,7,0,0.,12.0,0.,12.0,0.,12.0,0.,12.0
1981-08-25 22:07:16.030 ,6,1,0.,12.0,0.,12.0,0.,12.0,0.,12.0
1981-08-25 22:07:28.030 ,6,1,0.,12.0,0.,12.0,0.,12.0,0.,12.0
1981-08-25 22:07:40.030 ,6,0,0.,12.0,0.,12.0,0.,12.0,0.,12.0
1981-08-25 22:07:52.030 ,6,0,0.,12.0,0.,12.0,0.,12.0,0.,12.0
1981-08-25 22:08:04.030 ,5,1,0.,12.0,0.,12.0,0.,12.0,0.,12.0
1981-08-25 22:08:16.030 ,5,1,0.,12.0,0.,12.0,0.,12.0,0.,12.0
1981-08-25 22:08:28.030 ,5,0,0.,12.0,0.,12.0,0.,12.0,0.,12.0
1981-08-25 22:08:40.030 ,5,0,0.,12.0,0.,12.0,0.,12.0,0.,12.0
1981-08-25 22:08:52.030 ,4,1,0.,12.0,0.,12.0,0.,12.0,0.,12.0
1981-08-25 22:09:04.030 ,4,1,0.,12.0,0.,12.0,0.,12.0,0.,12.0
1981-08-25 22:09:16.030 ,4,0,0.,12.0,0.,12.0,0.,12.0,0.,12.0
1981-08-25 22:09:28.030 ,4,0,1.,12.0,0.,12.0,0.,12.0,0.,12.0
1981-08-25 22:09:40.030 ,3,1,0.,12.0,0.,12.0,0.,12.0,0.,12.0
1981-08-25 22:09:52.030 ,3,1,0.,12.0,0.,12.0,0.,12.0,0.,12.0
1981-08-25 22:10:04.030 ,3,0,0.,12.0,0.,12.0,0.,12.0,0.,12.0
1981-08-25 22:10:16.030 ,3,0,0.,12.0,0.,12.0,0.,12.0,0.,12.0
1981-08-25 22:10:28.030 ,2,1,0.,12.0,0.,12.0,0.,12.0,0.,12.0
1981-08-25 22:10:40.030 ,2,1,0.,12.0,0.,12.0,0.,12.0,0.,12.0
1981-08-25 22:10:52.030 ,2,0,0.,12.0,0.,12.0,0.,12.0,0.,12.0
1981-08-25 22:11:04.030 ,2,0,0.,12.0,0.,12.0,0.,12.0,0.,12.0
1981-08-25 22:11:16.030 ,1,1,0.,12.0,0.,12.0,0.,12.0,0.,12.0
1981-08-25 22:11:28.030 ,1,1,0.,12.0,0.,12.0,0.,12.0,0.,12.0
1981-08-25 22:11:40.030 ,1,0,0.,12.0,0.,12.0,0.,12.0,0.,12.0
1981-08-25 22:11:52.030 ,1,0,0.,12.0,0.,12.0,0.,12.0,0.,12.0
1981-08-25 22:12:04.030 ,0,1,0.,12.0,0.,12.0,0.,12.0,0.,12.0
1981-08-25 22:12:16.030 ,0,1,0.,12.0,0.,12.0,0.,12.0,0.,12.0
1981-08-25 22:12:28.030 ,0,0,0.,12.0,0.,12.0,0.,12.0,0.,12.0
1981-08-25 22:12:40.030 ,0,0,0.,12.0,0.,12.0,0.,12.0,0.,12.0
1981-08-25 22:12:52.030 ,0,1,0.,12.0,0.,12.0,0.,12.0,0.,12.0
1981-08-25 22:13:04.030 ,0,1,0.,12.0,0.,12.0,0.,12.0,0.,12.0
1981-08-25 22:13:16.030 ,0,0,0.,12.0,0.,12.0,0.,12.0,0.,12.0
1981-08-25 22:13:28.030 ,0,0,0.,12.0,0.,12.0,0.,12.0,0.,12.0
1981-08-25 22:13:40.030 ,1,1,0.,12.0,0.,12.0,0.,12.0,0.,12.0
1981-08-25 22:13:52.030 ,1,1,0.,12.0,0.,12.0,0.,12.0,0.,12.0
1981-08-25 22:14:04.030 ,1,0,0.,12.0,0.,12.0,0.,12.0,0.,12.0
1981-08-25 22:14:16.030 ,1,0,0.,12.0,0.,12.0,0.,12.0,0.,12.0
1981-08-25 22:14:28.030 ,2,1,0.,12.0,0.,12.0,0.,12.0,0.,12.0
1981-08-25 22:14:40.030 ,2,1,0.,12.0,0.,12.0,0.,12.0,0.,12.0
1981-08-25 22:14:52.030 ,2,0,0.,12.0,0.,12.0,0.,12.0,0.,12.0
1981-08-25 22:15:04.030 ,2,0,0.,12.0,0.,12.0,0.,12.0,0.,12.0
1981-08-25 22:15:16.030 ,3,1,0.,12.0,0.,12.0,0.,12.0,0.,12.0
1981-08-25 22:15:28.030 ,3,1,0.,12.0,0.,12.0,0.,12.0,0.,12.0
1981-08-25 22:15:40.030 ,3,0,0.,12.0,0.,12.0,0.,12.0,0.,12.0
1981-08-25 22:15:52.030 ,3,0,0.,12.0,0.,12.0,0.,12.0,0.,12.0
1981-08-25 22:16:04.030 ,4,1,0.,12.0,0.,12.0,0.,12.0,0.,12.0
1981-08-25 22:16:16.030 ,4,1,0.,12.0,0.,12.0,0.,12.0,0.,12.0
1981-08-25 22:16:28.030 ,4,0,0.,12.0,0.,12.0,0.,12.0,0.,12.0
1981-08-25 22:16:40.030 ,4,0,0.,12.0,0.,12.0,0.,12.0,0.,12.0
1981-08-25 22:16:52.030 ,5,1,0.,12.0,0.,12.0,0.,12.0,0.,12.0
1981-08-25 22:17:04.030 ,5,1,0.,12.0,0.,12.0,0.,12.0,0.,12.0
1981-08-25 22:17:16.030 ,5,0,0.,12.0,0.,12.0,0.,12.0,0.,12.0
1981-08-25 22:17:28.030 ,5,0,0.,12.0,0.,12.0,0.,12.0,0.,12.0
1981-08-25 22:17:40.030 ,6,1,0.,12.0,0.,12.0,0.,12.0,0.,12.0